{"data":{"norad_id":67273,"intl_designator":"2025-313AB","name":"2025-313AB","alt_names":[],"object_type":"PAYLOAD","status":"ACTIVE","operator":null,"country":"TBD","launch_date":"2025-12-28","launch_site_code":"VOSTO","launch_vehicle":null,"mission":null,"orbit_class":"UNKNOWN","rcs_meters":null,"size_class":null,"mass_kg":null,"dimensions":null,"purposes":[],"wikipedia_slug":null,"has_3d_model":false,"image_url":null,"decayed_at":null,"tle_current":{"epoch":"2026-05-25T03:48:41.889024Z","epoch_age_seconds":61442,"freshness":"FRESH","line1":"1 67273U 25313AB  26145.15881816  .00002862  00000+0  13189-3 0  9997","line2":"2 67273  97.3962 219.9956 0016001  92.4120 267.8948 15.20978151 22434","mean_motion":15.20978151,"eccentricity":0.0016001,"inclination_deg":97.3962,"raan_deg":219.9956,"arg_perigee_deg":92.412,"mean_anomaly_deg":267.8948,"bstar":0.00013189,"rev_number":2243,"period_min":94.675916222284,"perigee_km":491.87854710524,"apogee_km":513.89920611557,"semimajor_km":6881.0258766104,"source":"CELESTRAK","updated_at":"2026-05-25T13:38:06.851095Z"}}}